Weather History for Silver City, NM

Change the Weather History Date:

Saturday, March 8, 2014

  Actual Average (KDMN) Record (KDMN)
Temperature  
Mean Temperature 46 °F 50 °F  
Max Temperature 57 °F 66 °F 86 °F (1960)
Min Temperature 35 °F 34 °F 18 °F (1956)
Degree Days  
Heating Degree Days 19    
Moisture  
Dew Point 30 °F    
Average Humidity 59    
Maximum Humidity 87    
Minimum Humidity 28    
Precipitation  
Precipitation 0.01 in 0.01 in 0.57 in (1968)
Month to date precipitation 0.16  
Year to date precipitation 1.36  
Sea Level Pressure  
Sea Level Pressure 30.16 in    
Wind  
Wind Speed 9 mph (ENE)    
Max Wind Speed 18 mph    
Max Gust Speed 26 mph    
Visibility 10 miles    
Events Rain    
T = Trace of Precipitation, MM = Missing Value Source: NWS Daily Summary

Daily Weather History Graph

Daily Weather History Graph

Search for Another Location

Airport:

Trip Planner

Search our weather history database for the weather conditions in past years. The results will help you decide how hot, cold, wet, or windy it might be!

Date:

Astronomy

Mar. 08, 2014 Rise Set
Actual Time 6:31 AM MST 6:15 PM MST
Civil Twilight 6:07 AM MST 6:40 PM MST
Nautical Twilight 5:38 AM MST 7:08 PM MST
Astronomical Twilight 5:10 AM MST 7:37 PM MST
Moon 11:35 AM MST (3/8) 12:55 AM MST (3/8)
Length of Visible Light 12h 32m
Length of Day
11h 43m
First Quarter, 52% of the Moon is Illuminated
Mar 8
First Quarter
Mar 16
Full
Mar 23
Last Quarter
Mar 30
New
Apr 7
First Quarter

Hourly Weather History & Observations

Time (MST) Temp. Windchill Dew Point Humidity Pressure Visibility Wind Dir Wind Speed Gust Speed Precip Events Conditions
12:15 AM 42.8 °F 38.0 °F 30.2 °F 61% 30.02 in 10.0 mi NW 8.1 mph - N/A   Clear
12:35 AM 41.0 °F 35.2 °F 30.2 °F 65% 30.02 in 10.0 mi North 9.2 mph - N/A   Clear
12:55 AM 39.2 °F 33.0 °F 28.4 °F 65% 30.02 in 10.0 mi North 9.2 mph - N/A   Clear
1:15 AM 39.2 °F 35.0 °F 28.4 °F 65% 30.02 in 10.0 mi North 5.8 mph - N/A   Clear
1:35 AM 39.2 °F 35.0 °F 28.4 °F 65% 30.02 in 10.0 mi NW 5.8 mph - N/A   Clear
1:55 AM 37.4 °F 30.8 °F 28.4 °F 70% 30.02 in 10.0 mi NW 9.2 mph - N/A   Clear
2:15 AM 41.0 °F 34.7 °F 30.2 °F 65% 30.02 in 10.0 mi NNW 10.4 mph - N/A   Clear
2:35 AM 39.2 °F 31.6 °F 30.2 °F 70% 30.01 in 10.0 mi NNW 12.7 mph - N/A   Clear
2:55 AM 41.0 °F 33.9 °F 30.2 °F 65% 30.01 in 10.0 mi NNW 12.7 mph - N/A   Mostly Cloudy
3:15 AM 42.8 °F 37.0 °F 30.2 °F 61% 30.02 in 10.0 mi NNW 10.4 mph - N/A   Overcast
3:35 AM 42.8 °F 37.5 °F 30.2 °F 61% 30.03 in 10.0 mi NNW 9.2 mph - N/A   Overcast
3:55 AM 42.8 °F 35.4 °F 28.4 °F 57% 30.03 in 10.0 mi NW 15.0 mph - N/A   Mostly Cloudy
4:15 AM 44.6 °F 38.1 °F 30.2 °F 57% 30.04 in 10.0 mi NNW 13.8 mph - N/A   Mostly Cloudy
4:35 AM 44.6 °F 38.8 °F 32.0 °F 61% 30.05 in 10.0 mi NNW 11.5 mph - N/A   Mostly Cloudy
4:55 AM 44.6 °F 39.7 °F 32.0 °F 61% 30.06 in 10.0 mi NNW 9.2 mph - N/A   Mostly Cloudy
5:15 AM 44.6 °F 40.2 °F 32.0 °F 61% 30.07 in 10.0 mi NNE 8.1 mph - N/A   Mostly Cloudy
5:35 AM 44.6 °F 43.1 °F 30.2 °F 57% 30.08 in 10.0 mi WNW 3.5 mph - N/A   Scattered Clouds
5:55 AM 41.0 °F 37.1 °F 30.2 °F 65% 30.09 in 10.0 mi ESE 5.8 mph - N/A   Scattered Clouds
6:15 AM 41.0 °F 38.0 °F 30.2 °F 65% 30.09 in 10.0 mi ENE 4.6 mph - N/A   Partly Cloudy
6:35 AM 41.0 °F 38.0 °F 30.2 °F 65% 30.10 in 10.0 mi ESE 4.6 mph - N/A   Scattered Clouds
6:55 AM 41.0 °F - 32.0 °F 70% 30.11 in 10.0 mi Calm Calm - N/A   Mostly Cloudy
7:15 AM 41.0 °F 35.8 °F 32.0 °F 70% 30.12 in 10.0 mi NNW 8.1 mph - N/A   Mostly Cloudy
7:35 AM 44.6 °F 43.1 °F 32.0 °F 61% 30.13 in 10.0 mi ESE 3.5 mph - N/A   Partly Cloudy
7:55 AM 46.4 °F - 30.2 °F 53% 30.14 in 10.0 mi Calm Calm - N/A   Clear
8:15 AM 50.0 °F - 28.4 °F 43% 30.13 in 10.0 mi ESE 5.8 mph - N/A   Scattered Clouds
8:35 AM 50.0 °F - 28.4 °F 43% 30.14 in 10.0 mi East 8.1 mph - N/A   Mostly Cloudy
8:55 AM 51.8 °F - 26.6 °F 38% 30.14 in 10.0 mi East 9.2 mph - N/A   Scattered Clouds
9:15 AM 53.6 °F - 21.2 °F 28% 30.14 in 10.0 mi North 10.4 mph - N/A   Partly Cloudy
9:35 AM 53.6 °F - 21.2 °F 28% 30.15 in 10.0 mi NE 6.9 mph - N/A   Clear
9:55 AM 55.4 °F - 24.8 °F 31% 30.15 in 10.0 mi ESE 6.9 mph - N/A   Partly Cloudy
10:15 AM 53.6 °F - 26.6 °F 35% 30.15 in 10.0 mi SE 10.4 mph 17.3 mph N/A   Clear
10:35 AM 55.4 °F - 24.8 °F 31% 30.15 in 10.0 mi SE 13.8 mph 17.3 mph N/A   Mostly Cloudy
10:55 AM 55.4 °F - 23.0 °F 29% 30.15 in 10.0 mi South 3.5 mph - N/A   Mostly Cloudy
11:15 AM 55.4 °F - 24.8 °F 31% 30.15 in 10.0 mi ESE 16.1 mph 23.0 mph N/A   Scattered Clouds
11:35 AM 55.4 °F - 23.0 °F 29% 30.15 in 10.0 mi ESE 10.4 mph 16.1 mph N/A   Partly Cloudy
11:55 AM 57.2 °F - 24.8 °F 29% 30.15 in 10.0 mi SE 9.2 mph - N/A   Partly Cloudy
12:15 PM 55.4 °F - 23.0 °F 29% 30.14 in 10.0 mi East 10.4 mph - N/A   Mostly Cloudy
12:35 PM 53.6 °F - 26.6 °F 35% 30.15 in 10.0 mi SSW 8.1 mph - N/A   Overcast
12:55 PM 48.2 °F - 32.0 °F 54% 30.15 in 4.0 mi SE 12.7 mph 24.2 mph N/A Rain Light Rain
1:15 PM 51.8 °F - 35.6 °F 54% 30.16 in 10.0 mi East 11.5 mph 18.4 mph N/A   Mostly Cloudy
1:35 PM 50.0 °F - 32.0 °F 50% 30.16 in 10.0 mi ESE 17.3 mph 21.9 mph N/A   Mostly Cloudy
1:55 PM 50.0 °F - 32.0 °F 50% 30.16 in 10.0 mi ESE 17.3 mph 25.3 mph N/A   Partly Cloudy
2:15 PM 50.0 °F - 33.8 °F 54% 30.16 in 10.0 mi East 17.3 mph 21.9 mph N/A   Scattered Clouds
2:35 PM 48.2 °F - 35.6 °F 62% 30.18 in 10.0 mi ENE 17.3 mph 25.3 mph N/A   Partly Cloudy
2:55 PM 46.4 °F 41.9 °F 33.8 °F 62% 30.18 in 10.0 mi ENE 9.2 mph - N/A   Clear
3:15 PM 46.4 °F 40.4 °F 32.0 °F 57% 30.19 in 10.0 mi NE 13.8 mph - N/A   Mostly Cloudy
3:35 PM 46.4 °F 41.1 °F 32.0 °F 57% 30.20 in 7.0 mi NE 11.5 mph 18.4 mph N/A Rain Light Rain
3:55 PM 42.8 °F 34.8 °F 35.6 °F 76% 30.21 in 7.0 mi NE 17.3 mph 26.5 mph 0.01 in Rain Rain
4:15 PM 42.8 °F 34.5 °F 35.6 °F 76% 30.19 in 10.0 mi NNE 18.4 mph 25.3 mph N/A Rain Light Rain
4:35 PM 44.6 °F 38.1 °F 33.8 °F 66% 30.20 in 10.0 mi NE 13.8 mph 21.9 mph N/A   Clear
4:55 PM 44.6 °F 39.2 °F 32.0 °F 61% 30.21 in 10.0 mi NE 10.4 mph - N/A   Partly Cloudy
5:15 PM 44.6 °F 42.2 °F 33.8 °F 66% 30.21 in 10.0 mi NNE 4.6 mph - N/A   Clear
5:35 PM 44.6 °F 43.1 °F 35.6 °F 71% 30.22 in 10.0 mi NE 3.5 mph - N/A   Partly Cloudy
5:55 PM 44.6 °F - 33.8 °F 66% 30.22 in 10.0 mi Calm Calm - N/A   Partly Cloudy
6:15 PM 44.6 °F - 35.6 °F 71% 30.22 in 10.0 mi Calm Calm - N/A   Clear
6:35 PM 44.6 °F - 37.4 °F 76% 30.22 in 10.0 mi Calm Calm - N/A   Clear
6:55 PM 42.8 °F - 39.2 °F 87% 30.23 in 10.0 mi Calm Calm - N/A   Clear
7:15 PM 41.0 °F 37.1 °F 37.4 °F 87% 30.24 in 10.0 mi WNW 5.8 mph - N/A   Clear
7:35 PM 41.0 °F 36.4 °F 37.4 °F 87% 30.24 in 10.0 mi NW 6.9 mph - N/A   Scattered Clouds
7:55 PM 42.8 °F 40.1 °F 35.6 °F 76% 30.25 in 10.0 mi NE 4.6 mph - N/A   Mostly Cloudy
8:15 PM 44.6 °F 39.2 °F 26.6 °F 49% 30.25 in 10.0 mi ENE 10.4 mph - N/A   Clear
8:35 PM 46.4 °F 39.5 °F 23.0 °F 40% 30.26 in 10.0 mi East 17.3 mph - N/A   Clear
8:55 PM 46.4 °F 40.1 °F 23.0 °F 40% 30.27 in 10.0 mi East 15.0 mph - N/A   Clear
9:15 PM 44.6 °F 37.2 °F 26.6 °F 49% 30.29 in 10.0 mi SSE 17.3 mph - N/A   Clear
9:35 PM 39.2 °F 33.0 °F 33.8 °F 81% 30.30 in 10.0 mi SE 9.2 mph - N/A   Clear
9:55 PM 39.2 °F 32.5 °F 32.0 °F 75% 30.31 in 10.0 mi SE 10.4 mph - N/A   Clear
10:15 PM 39.2 °F 31.2 °F 32.0 °F 75% 30.31 in 10.0 mi ESE 13.8 mph - N/A   Clear
10:35 PM 37.4 °F 30.3 °F 32.0 °F 81% 30.31 in 10.0 mi ESE 10.4 mph - N/A   Clear
10:55 PM 37.4 °F 32.1 °F 30.2 °F 75% 30.32 in 10.0 mi SE 6.9 mph - N/A   Clear
11:15 PM 37.4 °F 31.4 °F 28.4 °F 70% 30.33 in 10.0 mi SE 8.1 mph - N/A   Clear
11:35 PM 35.6 °F 29.9 °F 28.4 °F 75% 30.32 in 10.0 mi SE 6.9 mph - N/A   Clear
11:55 PM 35.6 °F 28.6 °F 28.4 °F 75% 30.33 in 10.0 mi SE 9.2 mph - N/A   Clear